�N����,����,�~����,�C��,���x,�C��,����,���ϕ���,�ő�u�ԕ���,�ő厞����,���˗�,�I�_���x,�n�����x,�ő啗���N��,DTYPE
"19/05/17","00:10",0.0,16.2,77.3,1010.7,316.7,1.1,2.5,318.7,0.00,12.3,18.9,"00:08:40",1
"19/05/17","00:20",0.0,16.1,77.0,1010.2,317.6,1.6,3.1,326.5,0.00,12.1,18.9,"00:12:56",1
"19/05/17","00:30",0.0,15.8,77.2,1010.7,310.3,1.2,2.2,339.3,0.00,11.9,18.7,"00:26:08",1
"19/05/17","00:40",0.0,15.7,79.2,1010.7,318.0,1.2,1.9,312.1,0.00,12.1,18.8,"00:35:04",1
"19/05/17","00:50",0.0,15.5,79.5,1010.4,308.3,1.1,1.6,327.5,0.00,12.0,18.8,"00:42:48",1
"19/05/17","01:00",0.0,15.4,79.8,1010.4,296.4,1.2,1.9,336.2,0.00,12.0,18.6,"00:50:02",1
"19/05/17","01:10",0.0,15.5,80.1,1010.4,329.1,1.2,2.4,326.8,0.00,12.1,18.4,"01:02:48",1
"19/05/17","01:20",0.0,15.1,80.4,1010.9,328.0,1.2,1.9,320.5,0.00,11.8,18.4,"01:15:28",1
"19/05/17","01:30",0.0,14.6,81.9,1010.9,296.2,0.8,1.6,323.4,0.00,11.6,18.3,"01:20:02",1
"19/05/17","01:40",0.0,14.3,82.6,1010.7,310.4,0.7,1.7,329.3,0.00,11.4,18.2,"01:39:20",1
"19/05/17","01:50",0.0,14.2,84.1,1010.7,319.7,1.1,1.6,316.3,0.00,11.6,18.1,"01:41:28",1
"19/05/17","02:00",0.0,14.0,85.3,1010.4,310.6,1.2,1.8,317.1,0.00,11.6,18.1,"01:51:20",1
"19/05/17","02:10",0.0,14.2,85.8,1010.4,299.8,0.7,1.3,304.8,0.00,11.9,18.0,"02:06:08",1
"19/05/17","02:20",0.0,14.7,86.0,1010.9,335.7,1.1,2.0,41.0,0.00,12.4,18.1,"02:17:52",1
"19/05/17","02:30",0.0,14.8,85.2,1010.4,290.4,1.1,2.0,266.2,0.00,12.4,18.0,"02:28:16",1
"19/05/17","02:40",0.0,14.9,84.9,1010.7,325.1,1.5,2.0,312.3,0.00,12.4,17.8,"02:36:24",1
"19/05/17","02:50",0.0,14.8,84.7,1010.9,312.4,1.0,2.1,316.6,0.00,12.3,17.7,"02:46:24",1
"19/05/17","03:00",0.0,14.7,85.2,1010.9,316.9,1.2,1.7,319.8,0.00,12.3,17.7,"02:52:48",1
"19/05/17","03:10",0.0,14.6,85.1,1010.9,289.5,1.0,1.2,297.2,0.00,12.2,17.8,"03:00:40",1
"19/05/17","03:20",0.0,14.8,84.8,1010.9,319.0,1.3,2.1,325.0,0.00,12.3,17.6,"03:14:24",1
"19/05/17","03:30",0.0,14.5,85.7,1011.2,311.2,1.1,1.9,317.9,0.00,12.2,17.6,"03:21:52",1
"19/05/17","03:40",0.0,14.6,85.7,1010.7,320.6,1.0,1.8,326.1,0.00,12.3,17.5,"03:39:20",1
"19/05/17","03:50",0.0,14.3,85.6,1011.2,314.6,1.1,1.9,313.7,0.00,12.0,17.6,"03:43:12",1
"19/05/17","04:00",0.0,14.3,87.4,1011.6,312.7,1.1,1.4,264.4,0.00,12.3,17.5,"03:52:32",1
"19/05/17","04:10",0.0,14.3,87.6,1010.9,302.8,1.0,1.4,304.4,0.00,12.3,17.3,"04:06:56",1
"19/05/17","04:20",0.0,14.3,86.8,1011.4,315.0,1.0,1.6,316.3,0.00,12.2,17.3,"04:18:48",1
"19/05/17","04:30",0.0,14.0,87.8,1011.4,304.6,0.8,1.3,313.2,0.00,12.1,17.4,"04:22:56",1
"19/05/17","04:40",0.0,14.0,88.7,1011.6,293.9,0.8,1.6,322.5,0.00,12.2,17.2,"04:30:02",1
"19/05/17","04:50",0.0,14.1,89.1,1011.9,321.2,1.1,1.6,313.3,0.00,12.4,17.1,"04:41:36",1
"19/05/17","05:00",0.0,13.6,87.5,1011.2,310.7,0.8,1.9,317.1,0.00,11.6,17.2,"04:50:56",1
"19/05/17","05:10",0.0,13.7,89.5,1011.6,350.0,0.7,2.0,315.7,0.00,12.0,17.1,"05:07:28",1
"19/05/17","05:20",0.0,13.4,89.9,1011.2,319.1,1.6,2.1,323.6,0.00,11.8,16.8,"05:11:52",1
"19/05/17","05:30",0.0,13.3,91.6,1011.6,282.9,0.8,1.4,323.4,0.00,12.0,17.1,"05:20:08",1
"19/05/17","05:40",0.0,13.6,91.9,1011.9,299.8,1.0,1.4,303.6,0.00,12.3,17.1,"05:32:00",1
"19/05/17","05:50",0.0,13.6,91.3,1012.1,319.6,1.3,1.9,323.1,0.00,12.2,17.1,"05:41:20",1
"19/05/17","06:00",0.0,13.8,91.5,1012.3,326.7,0.8,1.8,321.3,0.00,12.5,17.0,"05:50:56",1
"19/05/17","06:10",0.0,14.0,92.1,1012.1,310.9,1.1,1.7,317.7,0.00,12.8,16.8,"06:02:56",1
"19/05/17","06:20",0.0,14.5,92.6,1012.3,329.3,0.8,1.2,326.6,0.01,13.4,16.8,"06:15:20",1
"19/05/17","06:30",0.0,15.1,91.8,1012.3,332.6,1.1,1.6,333.0,0.03,13.8,16.9,"06:28:40",1
"19/05/17","06:40",0.0,15.6,91.3,1012.8,290.3,0.7,1.4,328.2,0.02,14.2,17.1,"06:31:28",1
"19/05/17","06:50",0.0,16.2,92.2,1012.6,323.5,0.5,1.0,340.0,0.04,15.0,17.1,"06:48:00",1
"19/05/17","07:00",0.0,16.9,89.3,1013.0,318.2,0.5,1.4,340.8,0.06,15.2,17.3,"06:52:00",1
"19/05/17","07:10",0.0,17.2,88.4,1013.0,317.0,0.5,1.1,337.2,0.04,15.3,17.3,"07:05:28",1
"19/05/17","07:20",0.0,17.5,88.1,1013.0,316.6,0.5,1.7,319.8,0.07,15.5,17.3,"07:18:48",1
"19/05/17","07:30",0.0,18.3,85.1,1013.5,336.3,1.2,2.0,333.0,0.10,15.8,17.8,"07:25:04",1
"19/05/17","07:40",0.0,18.9,81.3,1013.5,343.9,0.8,1.7,331.7,0.14,15.7,17.6,"07:37:28",1
"19/05/17","07:50",0.0,20.1,77.4,1013.3,355.5,0.6,1.4,336.1,0.19,16.1,17.8,"07:40:32",1
"19/05/17","08:00",0.0,20.7,75.1,1013.0,244.3,0.6,1.7,232.6,0.21,16.2,18.1,"07:54:08",1
"19/05/17","08:10",0.0,21.0,72.7,1013.0,137.6,1.3,3.6,165.1,0.24,16.0,18.2,"08:08:24",1
"19/05/17","08:20",0.0,21.5,70.9,1013.0,92.3,1.3,3.7,122.3,0.27,16.0,18.2,"08:12:32",1
"19/05/17","08:30",0.0,21.1,72.0,1012.8,113.2,1.5,2.9,148.6,0.21,15.9,18.5,"08:27:20",1
"19/05/17","08:40",0.0,21.4,70.6,1013.0,114.0,1.7,3.4,81.3,0.27,15.9,18.5,"08:38:48",1
"19/05/17","08:50",0.0,22.3,69.6,1012.3,125.4,1.8,4.0,169.3,0.34,16.5,19.1,"08:46:00",1
"19/05/17","09:00",0.0,22.4,68.6,1012.8,100.0,1.5,3.6,68.4,0.30,16.4,19.2,"08:51:04",1
"19/05/17","09:10",0.0,21.9,65.7,1012.6,140.2,2.1,4.5,120.4,0.29,15.2,19.5,"09:03:36",1
"19/05/17","09:20",0.0,22.8,65.0,1012.6,102.8,1.5,4.1,48.0,0.38,15.9,19.5,"09:19:36",1
"19/05/17","09:30",0.0,23.1,62.9,1012.3,108.9,2.2,4.7,117.0,0.46,15.7,19.8,"09:24:24",1
"19/05/17","09:40",0.0,23.0,63.9,1012.1,100.1,1.7,3.1,100.8,0.42,15.8,20.0,"09:31:36",1
"19/05/17","09:50",0.0,23.4,62.0,1011.9,116.7,1.8,4.1,111.1,0.43,15.8,20.2,"09:45:20",1
"19/05/17","10:00",0.0,24.1,61.6,1012.1,108.0,1.2,3.3,116.8,0.46,16.3,20.5,"09:55:04",1
"19/05/17","10:10",0.0,23.0,64.2,1011.6,122.9,1.5,3.2,102.7,0.24,15.9,20.7,"10:03:52",1
"19/05/17","10:20",0.0,23.3,60.0,1011.9,112.4,1.3,3.2,125.5,0.41,15.1,20.9,"10:10:08",1
"19/05/17","10:30",0.0,23.3,61.5,1011.6,164.4,1.3,3.6,149.1,0.27,15.5,21.1,"10:24:00",1
"19/05/17","10:40",0.0,23.8,58.0,1011.4,120.8,0.7,1.9,77.3,0.36,15.1,21.1,"10:37:20",1
"19/05/17","10:50",0.0,23.2,59.7,1011.4,113.0,1.5,4.8,120.4,0.19,15.0,21.4,"10:43:12",1
"19/05/17","11:00",0.0,23.3,60.0,1011.4,200.5,1.8,4.2,199.4,0.20,15.1,21.4,"10:52:56",1
"19/05/17","11:10",0.0,24.3,59.4,1011.4,158.6,1.2,3.3,196.8,0.37,15.9,21.5,"11:01:04",1
"19/05/17","11:20",0.0,24.1,57.3,1011.2,192.7,1.7,4.2,224.7,0.41,15.2,21.8,"11:17:44",1
"19/05/17","11:30",0.0,24.9,54.7,1010.9,124.2,1.5,3.4,129.5,0.46,15.2,21.8,"11:23:44",1
"19/05/17","11:40",0.0,23.9,55.5,1010.4,122.9,1.7,3.9,101.0,0.25,14.5,22.2,"11:35:36",1
"19/05/17","11:50",0.0,24.9,54.8,1010.4,135.4,1.3,3.1,104.9,0.48,15.2,22.2,"11:43:20",1
"19/05/17","12:00",0.0,25.4,54.0,1010.4,139.8,1.6,5.8,154.4,0.50,15.5,22.5,"11:59:36",1
"19/05/17","12:10",0.0,25.8,50.4,1010.7,123.0,1.8,4.5,161.2,0.54,14.8,22.9,"12:00:32",1
"19/05/17","12:20",0.0,25.6,49.7,1010.2,161.0,2.1,4.5,149.0,0.53,14.4,23.0,"12:14:08",1
"19/05/17","12:30",0.0,26.4,50.5,1010.4,131.8,1.5,3.6,128.3,0.62,15.3,23.3,"12:23:28",1
"19/05/17","12:40",0.0,25.4,49.5,1010.2,151.4,2.0,4.2,161.4,0.35,14.1,23.4,"12:38:24",1
"19/05/17","12:50",0.0,25.7,50.5,1009.7,132.3,2.0,3.9,141.5,0.43,14.7,23.8,"12:41:28",1
"19/05/17","13:00",0.0,25.3,49.4,1009.7,92.8,1.5,3.1,114.6,0.14,14.0,23.8,"12:50:24",1
"19/05/17","13:10",0.0,25.1,49.4,1009.0,101.2,1.3,3.1,40.1,0.15,13.8,23.6,"13:05:04",1
"19/05/17","13:20",0.0,25.4,48.3,1009.3,78.5,1.1,3.2,102.5,0.17,13.7,23.6,"13:19:44",1
"19/05/17","13:30",0.0,26.8,46.3,1009.0,83.2,1.5,3.5,55.2,0.37,14.4,23.5,"13:20:40",1
"19/05/17","13:40",0.0,25.8,46.4,1008.6,76.0,1.2,3.5,21.3,0.32,13.5,23.7,"13:34:32",1
"19/05/17","13:50",0.0,26.9,44.1,1008.6,117.2,1.7,4.4,123.9,0.44,13.7,23.7,"13:46:24",1
"19/05/17","14:00",0.0,27.3,40.0,1008.8,115.3,1.6,4.3,47.4,0.52,12.6,23.7,"13:57:12",1
"19/05/17","14:10",0.0,27.1,38.6,1008.8,93.3,2.1,4.4,38.4,0.44,11.8,23.7,"14:09:48",1
"19/05/17","14:20",0.0,27.2,37.8,1009.0,86.2,1.7,4.3,52.2,0.51,11.6,23.7,"14:19:04",1
"19/05/17","14:30",0.0,27.5,37.0,1009.0,94.0,2.0,5.7,126.0,0.50,11.6,23.8,"14:23:12",1
"19/05/17","14:40",0.0,27.7,37.0,1009.0,98.5,1.6,3.6,131.8,0.46,11.7,23.9,"14:30:56",1
"19/05/17","14:50",0.0,27.4,38.7,1008.8,101.2,2.1,4.2,119.2,0.40,12.2,24.1,"14:47:44",1
"19/05/17","15:00",0.0,27.3,39.1,1008.6,73.0,1.8,5.8,49.2,0.39,12.2,24.2,"14:55:36",1
"19/05/17","15:10",0.0,27.1,39.7,1008.3,88.0,2.1,4.5,57.9,0.38,12.3,24.3,"15:06:40",1
"19/05/17","15:20",0.0,26.8,42.2,1008.1,97.5,2.0,5.5,116.2,0.22,12.9,24.1,"15:15:44",1
"19/05/17","15:30",0.0,26.6,42.8,1007.6,122.7,2.1,4.9,92.1,0.31,13.0,24.2,"15:24:40",1
"19/05/17","15:40",0.0,26.2,42.4,1007.6,112.3,2.1,4.8,133.4,0.20,12.5,24.2,"15:31:36",1
"19/05/17","15:50",0.0,26.8,42.7,1007.4,109.6,2.0,3.9,113.3,0.25,13.1,24.0,"15:49:20",1
"19/05/17","16:00",0.0,26.8,43.9,1007.4,150.2,2.5,4.8,150.1,0.28,13.5,24.2,"15:51:52",1
"19/05/17","16:10",0.0,26.6,43.9,1007.6,110.7,2.1,4.5,108.4,0.25,13.4,24.1,"16:06:16",1
"19/05/17","16:20",0.0,26.8,45.5,1007.6,127.8,2.1,4.2,151.0,0.24,14.1,24.2,"16:12:48",1
"19/05/17","16:30",0.0,26.1,45.7,1008.3,127.4,2.3,4.8,126.8,0.13,13.5,23.9,"16:29:20",1
"19/05/17","16:40",0.0,26.5,44.6,1008.1,152.8,3.0,7.0,140.2,0.26,13.5,23.8,"16:39:44",1
"19/05/17","16:50",0.0,26.6,44.4,1008.1,154.0,3.1,5.6,171.3,0.23,13.5,23.7,"16:41:20",1
"19/05/17","17:00",0.0,26.3,45.6,1008.1,150.5,2.7,5.2,135.7,0.20,13.7,23.7,"16:57:12",1
"19/05/17","17:10",0.0,25.7,45.3,1008.3,135.7,3.1,5.2,111.1,0.12,13.0,23.5,"17:04:32",1
"19/05/17","17:20",0.0,25.3,46.0,1008.6,128.4,2.7,5.9,141.6,0.08,12.9,23.6,"17:16:32",1
"19/05/17","17:30",0.0,25.2,46.5,1008.8,145.8,2.8,6.2,166.7,0.07,13.0,23.5,"17:20:56",1
"19/05/17","17:40",0.0,25.0,47.9,1008.6,138.7,2.7,4.9,125.0,0.05,13.2,23.2,"17:39:52",1
"19/05/17","17:50",0.0,25.0,47.5,1009.0,129.4,2.7,4.9,125.6,0.05,13.1,23.4,"17:44:00",1
"19/05/17","18:00",0.0,24.8,48.0,1009.5,147.2,2.5,5.0,153.7,0.03,13.1,23.0,"17:59:04",1
"19/05/17","18:10",0.0,24.5,48.6,1009.7,140.2,2.1,4.2,131.1,0.02,13.0,22.7,"18:08:40",1
"19/05/17","18:20",0.0,24.2,48.4,1009.7,128.7,2.3,5.6,119.3,0.01,12.7,23.0,"18:12:56",1
"19/05/17","18:30",0.0,24.0,48.5,1010.0,133.5,2.2,4.5,136.9,0.02,12.5,22.7,"18:27:44",1
"19/05/17","18:40",0.0,23.8,49.2,1010.2,123.3,1.8,5.2,127.3,0.01,12.6,22.7,"18:31:04",1
"19/05/17","18:50",0.0,23.6,49.7,1010.2,124.4,1.8,5.2,113.4,0.00,12.5,22.4,"18:47:44",1
"19/05/17","19:00",0.0,23.5,49.5,1010.4,116.3,2.0,5.4,121.3,0.00,12.4,22.4,"18:58:32",1
"19/05/17","19:10",0.0,23.3,50.8,1010.4,122.2,2.2,5.4,137.4,0.00,12.6,22.4,"19:02:56",1
"19/05/17","19:20",0.0,23.0,52.3,1010.9,132.5,1.7,4.2,136.3,0.00,12.8,22.1,"19:19:28",1
"19/05/17","19:30",0.0,22.8,52.7,1011.2,140.7,2.3,4.7,155.8,0.00,12.7,22.0,"19:25:04",1
"19/05/17","19:40",0.0,22.6,53.6,1011.4,142.3,2.1,4.2,149.2,0.00,12.8,21.7,"19:34:40",1
"19/05/17","19:50",0.0,22.5,53.8,1011.4,157.7,1.8,4.2,224.6,0.00,12.7,21.6,"19:47:20",1
"19/05/17","20:00",0.0,22.4,52.7,1011.6,159.9,2.8,5.9,183.7,0.00,12.3,21.6,"19:53:20",1
"19/05/17","20:10",0.0,22.2,53.7,1011.6,165.9,3.0,7.3,157.8,0.00,12.4,21.3,"20:07:12",1
"19/05/17","20:20",0.0,22.0,54.4,1011.9,153.8,2.0,3.7,127.0,0.00,12.4,21.5,"20:16:24",1
"19/05/17","20:30",0.0,21.8,56.6,1011.9,153.1,1.7,4.2,170.0,0.00,12.8,21.2,"20:29:20",1
"19/05/17","20:40",0.0,21.7,57.1,1011.9,152.9,2.6,5.7,119.8,0.00,12.9,21.1,"20:38:48",1
"19/05/17","20:50",0.0,21.5,58.7,1011.9,139.1,2.1,4.3,126.6,0.00,13.1,21.1,"20:44:00",1
"19/05/17","21:00",0.0,21.3,59.7,1012.3,131.4,2.3,4.2,105.2,0.00,13.2,21.0,"20:52:00",1
"19/05/17","21:10",0.0,21.2,60.0,1012.6,132.8,2.5,4.1,156.7,0.00,13.2,20.9,"21:07:52",1
"19/05/17","21:20",0.0,20.9,61.0,1012.6,143.5,1.5,3.7,120.9,0.00,13.1,20.9,"21:12:56",1
"19/05/17","21:30",0.0,20.7,62.4,1012.3,133.4,1.5,3.9,168.3,0.00,13.3,20.8,"21:20:24",1
"19/05/17","21:40",0.0,20.6,62.5,1012.3,122.3,1.7,4.5,129.5,0.00,13.2,20.8,"21:32:00",1
"19/05/17","21:50",0.0,20.5,63.3,1013.0,119.6,1.6,3.5,130.8,0.00,13.3,20.7,"21:41:20",1
"19/05/17","22:00",0.0,20.4,63.7,1013.3,138.5,2.0,5.0,119.7,0.00,13.3,20.5,"21:58:24",1
"19/05/17","22:10",0.0,20.3,64.4,1013.0,124.3,2.1,4.2,123.6,0.00,13.4,20.4,"22:06:24",1
"19/05/17","22:20",0.0,20.0,65.1,1013.5,137.4,1.6,3.3,118.7,0.00,13.3,20.5,"22:11:28",1
"19/05/17","22:30",0.0,19.9,65.9,1013.0,117.2,1.0,3.1,126.6,0.00,13.4,20.3,"22:23:28",1
"19/05/17","22:40",0.0,19.9,65.5,1013.3,136.2,1.8,4.4,139.1,0.00,13.3,20.1,"22:34:56",1
"19/05/17","22:50",0.0,20.0,64.9,1013.5,136.7,2.2,4.0,134.5,0.00,13.2,20.0,"22:43:20",1
"19/05/17","23:00",0.0,19.7,64.6,1013.8,142.4,1.3,2.9,130.0,0.00,12.9,20.2,"22:56:00",1
"19/05/17","23:10",0.0,19.6,65.2,1013.8,114.7,1.2,2.8,131.3,0.00,12.9,20.0,"23:04:08",1
"19/05/17","23:20",0.0,19.5,65.1,1013.8,113.8,1.2,3.5,125.1,0.00,12.8,19.8,"23:17:52",1
"19/05/17","23:30",0.0,19.3,65.4,1013.5,113.2,1.1,2.6,93.6,0.00,12.7,19.8,"23:29:52",1
"19/05/17","23:40",0.0,19.3,66.1,1013.8,134.4,1.5,3.1,123.9,0.00,12.9,19.6,"23:39:12",1
"19/05/17","23:50",0.0,19.3,66.6,1013.8,131.1,1.6,2.9,164.3,0.00,13.0,19.6,"23:44:00",1
"19/05/17","24:00",0.0,19.2,66.9,1013.3,128.9,1.5,4.8,141.7,0.00,12.9,19.7,"23:52:24",1
